User: anonymous
Location: Unspecified
(0.0000°N, 0.0000°E)
Time: 10:11:07
(UTC+02:00)
Language:

NOAA 12 - Orbit

View from above orbital plane
View from above orbital plane
View from above satellite
View from above satellite

Ground track
Ground track

The orbit data is extracted from the following two-line orbital elements,

1 21263U 91032A   14273.42539557  .00000118  00000-0  68387-4 0  4469
2 21263 098.6571 299.0207 0012588 291.7869 171.8576 14.25683362215550
Epoch (UTC): 30 September 2014 10:12:34
Eccentricity: 0.0012588
inclination: 98.6571°
perigee height: 797 km
apogee height: 815 km
right ascension of ascending node: 299.0207°
argument of perigee: 291.7869°
revolutions per day: 14.25683362
mean anomaly at epoch: 171.8576°
orbit number at epoch: 21555

The dashed part of the orbit path shows where the satellite is in the earth's shadow,  

DLR